Fairchild AFB, WA

9:33 PM PST on February 24, 2017 (GMT -0800)
Fairchild Air Force Base

Weather History for KSKA - May, 2014

Change the Weather History Date:

Friday, May 23, 2014

  Actual Average Record
Temperature  
Mean Temperature 65 °F -  
Max Temperature 78 °F 64 °F 89 °F (2001)
Min Temperature 52 °F 43 °F 32 °F (2013)
Growing Degree Days 15 (Base 50)    
Moisture  
Dew Point 47 °F    
Average Humidity 50    
Maximum Humidity 83    
Minimum Humidity 30    
Precipitation  
Precipitation 0.00 in - - ()
Sea Level Pressure  
Sea Level Pressure 29.96 in    
Wind  
Wind Speed 9 mph (SSW)    
Max Wind Speed 24 mph    
Max Gust Speed 32 mph    
Visibility 10 miles    
Events Rain    
Averages and records for this station are not official NWS values.
T = Trace of Precipitation, MM = Missing Value Source: NWS Daily Summary

Daily Weather History Graph

Daily Weather History Graph

Search for Another Location

Airport or City:

Trip Planner

Search our weather history database for the weather conditions in past years. The results will help you decide how hot, cold, wet, or windy it might be!

Date:

Astronomy

May. 23, 2014 Rise Set
Actual Time 5:04 AM PDT 8:31 PM PDT
Civil Twilight 4:26 AM PDT 9:09 PM PDT
Nautical Twilight 3:35 AM PDT 10:00 PM PDT
Astronomical Twilight 2:29 AM PDT 11:07 PM PDT
Moon 2:24 AM PDT (5/23) 3:07 PM PDT (5/23)
Length of Visible Light 16h 43m
Length of Day
15h 27m
Waning Crescent, 26% of the Moon is Illuminated
May 23
Waning Crescent
May 28
New
Jun 5
First Quarter
Jun 12
Full
Jun 19
Last Quarter

Hourly Weather History & Observations

Time (PDT) Temp. Dew Point Humidity Pressure Visibility Wind Dir Wind Speed Gust Speed Precip Events Conditions
12:58 AM 60.8 °F 43.7 °F 53% 29.97 in 10.0 mi SSW 2.3 mph - N/A   Clear
1:58 AM 57.7 °F 43.9 °F 60% 29.96 in 10.0 mi SSE 3.5 mph - N/A   Clear
2:58 AM 57.6 °F 43.5 °F 59% 29.96 in 10.0 mi SSE 4.6 mph - N/A   Clear
3:58 AM 57.4 °F 44.1 °F 61% 29.96 in 10.0 mi Calm Calm - N/A   Clear
4:58 AM 52.5 °F 44.2 °F 73% 29.96 in 10.0 mi SE 5.8 mph - N/A   Partly Cloudy
5:58 AM 55.9 °F 46.8 °F 71% 29.96 in 10.0 mi SE 5.8 mph - N/A   Overcast
6:58 AM 57.6 °F 48.4 °F 71% 29.94 in 10.0 mi ESE 8.1 mph - N/A   Mostly Cloudy
7:58 AM 61.5 °F 47.3 °F 60% 29.94 in 10.0 mi SE 4.6 mph - N/A   Mostly Cloudy
8:58 AM 66.2 °F 47.5 °F 51% 29.94 in 10.0 mi SE 3.5 mph - N/A   Partly Cloudy
9:58 AM 68.7 °F 49.8 °F 51% 29.94 in 10.0 mi South 8.1 mph - N/A   Scattered Clouds
10:58 AM 74.3 °F 48.0 °F 39% 29.92 in 10.0 mi South 8.1 mph - N/A   Scattered Clouds
11:58 AM 78.8 °F 45.0 °F 30% 29.91 in 10.0 mi SSW 9.2 mph - N/A   Mostly Cloudy
12:25 PM 77.0 °F 44.6 °F 32% 29.94 in 10.0 mi SW 12.7 mph - N/A   Overcast
1:03 PM 75.2 °F 48.2 °F 38% 29.95 in 10.0 mi SW 16.1 mph - N/A Rain Light Rain
1:13 PM 75.2 °F 48.2 °F 38% 29.95 in 10.0 mi SSW 15.0 mph - N/A   Overcast
1:33 PM 75.2 °F 50.0 °F 41% 29.95 in 10.0 mi WSW 13.8 mph - N/A   Mostly Cloudy
1:42 PM 73.4 °F 50.0 °F 44% 29.95 in 10.0 mi WSW 13.8 mph - N/A Rain Light Rain
1:53 PM 73.4 °F 50.0 °F 44% 29.95 in 10.0 mi SW 11.5 mph - N/A   Mostly Cloudy
1:58 PM 74.1 °F 48.0 °F 40% 29.93 in 10.0 mi SW 12.7 mph - 0.00 in   Mostly Cloudy
2:07 PM 73.4 °F 50.0 °F 44% 29.96 in 10.0 mi West 16.1 mph - N/A Rain Light Rain
2:10 PM 73.4 °F 50.0 °F 44% 29.96 in 10.0 mi West 16.1 mph - N/A Rain Light Rain
2:17 PM 73.4 °F 48.2 °F 41% 29.96 in 10.0 mi WSW 17.3 mph - N/A   Mostly Cloudy
2:36 PM 71.6 °F 48.2 °F 43% 29.97 in 10.0 mi West 17.3 mph - N/A Rain Light Rain
2:58 PM 67.1 °F 52.5 °F 59% 29.97 in 10.0 mi West 16.1 mph 28.8 mph 0.00 in Rain Light Rain
3:15 PM 68.0 °F 51.8 °F 56% 29.98 in 10.0 mi WSW 12.7 mph - N/A   Overcast
3:31 PM 68.0 °F 48.2 °F 49% 29.98 in 10.0 mi WSW 13.8 mph - N/A Rain Light Rain
3:43 PM 68.0 °F 46.4 °F 46% 29.97 in 10.0 mi SSW 16.1 mph 25.3 mph N/A   Overcast
3:45 PM 68.0 °F 46.4 °F 46% 29.97 in 10.0 mi SSW 16.1 mph 24.2 mph N/A Rain Light Rain
3:58 PM 67.3 °F 46.8 °F 48% 29.96 in 10.0 mi SSW 17.3 mph 23.0 mph 0.00 in Rain Light Rain
3:59 PM 68.0 °F 46.4 °F 46% 29.97 in 10.0 mi SSW 17.3 mph 23.0 mph N/A   Overcast
4:58 PM 71.2 °F 46.8 °F 42% 29.93 in 7.0 mi SW 15.0 mph 20.7 mph 0.00 in   Partly Cloudy
5:58 PM 70.3 °F 42.1 °F 36% 29.95 in 10.0 mi WSW 24.2 mph 32.2 mph N/A   Clear
6:58 PM 67.3 °F 42.3 °F 40% 29.94 in 10.0 mi SW 21.9 mph 31.1 mph N/A   Scattered Clouds
7:58 PM 64.9 °F 44.4 °F 47% 29.95 in 10.0 mi SSW 18.4 mph 24.2 mph N/A   Clear
8:58 PM 63.5 °F 45.9 °F 53% 29.97 in 10.0 mi SSW 13.8 mph 20.7 mph N/A   Clear
9:58 PM 60.6 °F 48.0 °F 63% 29.98 in 10.0 mi South 12.7 mph - N/A   Clear
10:58 PM 57.0 °F 48.6 °F 73% 29.98 in 10.0 mi SSW 12.7 mph - N/A   Partly Cloudy
11:58 PM 54.5 °F 49.5 °F 83% 29.98 in 10.0 mi South 12.7 mph - N/A   Clear